timestamp,wind_dir_avg,wind_spd_avg,wind_spd_max_dir,wind_spd_gust,battery_voltage,lat,long
2023-01-16 00:04:00+00:00,46.0,11.41,48.0,15.34,12.01,47.59359,-54.27349
2023-01-16 00:14:00+00:00,44.0,9.83,55.0,13.29,12.01,47.59359,-54.27349
2023-01-16 00:24:00+00:00,48.0,10.38,57.0,13.8,12.01,47.59359,-54.27349
2023-01-16 00:34:00+00:00,49.0,10.23,54.0,13.85,12.01,47.59359,-54.27349
2023-01-16 00:44:00+00:00,46.0,9.66,60.0,14.01,12.01,47.59359,-54.27349
2023-01-16 00:54:00+00:00,49.0,10.67,52.0,14.15,12.01,47.59359,-54.27349
2023-01-16 01:04:00+00:00,51.0,9.74,54.0,13.17,12.01,47.59359,-54.27349
2023-01-16 01:14:00+00:00,52.0,13.24,46.0,15.65,12.01,47.59359,-54.27349
2023-01-16 01:24:00+00:00,54.0,14.32,53.0,18.02,12.01,47.59359,-54.27349
2023-01-16 01:34:00+00:00,54.0,11.8,56.0,16.49,12.01,47.59359,-54.27349
2023-01-16 01:44:00+00:00,56.0,12.13,55.0,14.93,12.01,47.59359,-54.27349
2023-01-16 01:54:00+00:00,53.0,9.31,61.0,12.99,12.01,47.59359,-54.27349
2023-01-16 02:04:00+00:00,63.0,12.79,66.0,15.06,12.01,47.59359,-54.27349
2023-01-16 02:14:00+00:00,57.0,13.37,51.0,15.29,12.01,47.59359,-54.27349
2023-01-16 02:24:00+00:00,56.0,15.15,61.0,18.22,12.01,47.59359,-54.27349
2023-01-16 02:34:00+00:00,55.0,14.44,55.0,19.15,12.01,47.59359,-54.27349
2023-01-16 02:44:00+00:00,54.0,14.61,55.0,18.53,12.01,47.59359,-54.27349
2023-01-16 02:54:00+00:00,58.0,12.27,60.0,15.2,12.01,47.59359,-54.27349
2023-01-16 03:04:00+00:00,64.0,11.54,69.0,13.18,12.01,47.59359,-54.27349
2023-01-16 03:14:01+00:00,64.0,11.91,70.0,16.9,12.01,47.59359,-54.27349
2023-01-16 03:24:01+00:00,61.0,12.04,61.0,13.85,12.01,47.59359,-54.27349
2023-01-16 03:34:01+00:00,60.0,13.58,62.0,16.22,12.01,47.59359,-54.27349
2023-01-16 03:44:01+00:00,54.0,13.75,50.0,17.79,12.01,47.59359,-54.27349
2023-01-16 03:54:01+00:00,60.0,14.62,58.0,17.28,12.01,47.59359,-54.27349
2023-01-16 04:04:01+00:00,61.0,10.92,68.0,14.15,12.01,47.59359,-54.27349
2023-01-16 04:14:00+00:00,57.0,11.32,56.0,14.57,12.01,47.59359,-54.27349
2023-01-16 04:24:00+00:00,60.0,12.63,66.0,15.81,12.01,47.59359,-54.27349
2023-01-16 04:34:00+00:00,61.0,10.58,68.0,13.23,12.01,47.59359,-54.27349
2023-01-16 04:44:00+00:00,54.0,10.48,68.0,13.83,12.01,47.59359,-54.27349
2023-01-16 04:54:00+00:00,55.0,12.88,49.0,16.36,12.01,47.59359,-54.27349
2023-01-16 05:04:00+00:00,61.0,12.22,63.0,17.39,12.01,47.59359,-54.27349
2023-01-16 05:14:01+00:00,59.0,12.98,59.0,14.57,12.01,47.59359,-54.27349
2023-01-16 05:24:01+00:00,56.0,10.66,57.0,14.32,12.01,47.59359,-54.27349
2023-01-16 05:34:01+00:00,57.0,11.66,57.0,13.92,12.01,47.59359,-54.27349
2023-01-16 05:44:01+00:00,56.0,12.7,53.0,15.53,12.01,47.59359,-54.27349
2023-01-16 05:54:01+00:00,57.0,13.25,57.0,15.96,12.01,47.59359,-54.27349
2023-01-16 06:04:01+00:00,57.0,11.78,68.0,17.01,12.01,47.59359,-54.27349
2023-01-16 06:14:01+00:00,53.0,10.05,56.0,13.66,12.01,47.59359,-54.27349
2023-01-16 06:24:01+00:00,51.0,10.88,54.0,14.87,12.01,47.59359,-54.27349
2023-01-16 06:34:01+00:00,56.0,11.99,65.0,15.11,12.01,47.59359,-54.27349
2023-01-16 06:44:01+00:00,59.0,12.47,68.0,14.5,12.01,47.59359,-54.27349
2023-01-16 06:54:01+00:00,62.0,12.45,69.0,16.59,12.01,47.59359,-54.27349
2023-01-16 07:04:01+00:00,59.0,10.6,55.0,13.6,12.01,47.59359,-54.27349
2023-01-16 07:14:00+00:00,60.0,10.29,65.0,14.13,12.01,47.59359,-54.27349
2023-01-16 07:24:00+00:00,60.0,10.8,63.0,13.94,12.01,47.59359,-54.27349
2023-01-16 07:34:00+00:00,63.0,9.94,70.0,12.89,12.01,47.59359,-54.27349
2023-01-16 07:44:00+00:00,62.0,11.59,63.0,13.71,12.01,47.59359,-54.27349
2023-01-16 07:54:00+00:00,59.0,10.84,62.0,13.89,12.01,47.59359,-54.27349
2023-01-16 08:04:00+00:00,51.0,10.2,58.0,14.06,12.01,47.59359,-54.27349
2023-01-16 08:14:00+00:00,57.0,9.93,61.0,12.85,12.01,47.59359,-54.27349
2023-01-16 08:24:00+00:00,57.0,10.54,57.0,13.36,12.01,47.59359,-54.27349
2023-01-16 08:34:00+00:00,63.0,9.94,66.0,12.5,12.01,47.59359,-54.27349
2023-01-16 08:44:00+00:00,58.0,9.16,60.0,13.15,12.01,47.59359,-54.27349
2023-01-16 08:54:00+00:00,61.0,10.2,70.0,15.86,12.01,47.59359,-54.27349
2023-01-16 09:04:00+00:00,62.0,9.88,71.0,13.64,12.01,47.59359,-54.27349
2023-01-16 09:14:01+00:00,66.0,12.25,61.0,15.08,12.01,47.59359,-54.27349
2023-01-16 09:24:01+00:00,67.0,11.79,78.0,14.95,12.01,47.59359,-54.27349
2023-01-16 09:34:01+00:00,70.0,12.53,72.0,15.34,12.01,47.59359,-54.27349
2023-01-16 09:44:01+00:00,68.0,12.68,74.0,16.4,12.01,47.59359,-54.27349
2023-01-16 09:54:01+00:00,67.0,12.35,72.0,17.77,12.01,47.59359,-54.27349
2023-01-16 10:04:01+00:00,66.0,12.9,74.0,17.9,12.01,47.59359,-54.27349
2023-01-16 10:14:00+00:00,61.0,10.72,66.0,14.84,12.01,47.59359,-54.27349
2023-01-16 10:24:00+00:00,60.0,10.78,73.0,15.94,12.01,47.59359,-54.27349
2023-01-16 10:34:00+00:00,55.0,9.86,56.0,13.67,12.01,47.59359,-54.27349
2023-01-16 10:44:00+00:00,57.0,9.16,62.0,13.09,12.01,47.59359,-54.27349
2023-01-16 10:54:00+00:00,56.0,9.78,57.0,12.96,12.01,47.59359,-54.27349
2023-01-16 11:04:00+00:00,63.0,8.55,68.0,10.92,12.01,47.59359,-54.27349
2023-01-16 11:14:00+00:00,59.0,9.73,67.0,12.72,12.01,47.59359,-54.27349
2023-01-16 11:24:00+00:00,64.0,9.14,69.0,11.84,12.01,47.59359,-54.27349
2023-01-16 11:34:00+00:00,66.0,9.87,61.0,12.71,12.01,47.59359,-54.27349
2023-01-16 11:44:00+00:00,62.0,10.78,63.0,14.36,12.01,47.59359,-54.27349
2023-01-16 11:54:00+00:00,61.0,10.64,57.0,13.5,12.01,47.59359,-54.27349
2023-01-16 12:04:00+00:00,67.0,12.3,73.0,18.59,12.01,47.59359,-54.27349
2023-01-16 12:14:00+00:00,67.0,11.77,69.0,17.66,12.01,47.59359,-54.27349
2023-01-16 12:24:00+00:00,66.0,10.87,69.0,15.31,12.01,47.59359,-54.27349
2023-01-16 12:34:00+00:00,67.0,10.8,62.0,13.28,12.01,47.59359,-54.27349
2023-01-16 12:44:00+00:00,69.0,8.84,67.0,10.07,12.01,47.59359,-54.27349
2023-01-16 12:54:00+00:00,66.0,8.79,67.0,9.83,12.01,47.59359,-54.27349
2023-01-16 13:04:00+00:00,62.0,8.82,69.0,12.17,12.01,47.59359,-54.27349
2023-01-16 13:14:00+00:00,60.0,8.92,71.0,12.07,12.01,47.59359,-54.27349
2023-01-16 13:24:00+00:00,65.0,8.87,62.0,9.93,12.01,47.59359,-54.27349
2023-01-16 13:34:00+00:00,63.0,9.78,68.0,13.37,12.01,47.59359,-54.27349
2023-01-16 13:44:00+00:00,61.0,8.96,70.0,12.1,12.01,47.59359,-54.27349
2023-01-16 13:54:00+00:00,65.0,10.7,68.0,13.4,12.01,47.59359,-54.27349
2023-01-16 14:04:00+00:00,65.0,10.12,70.0,13.17,12.01,47.59359,-54.27349
2023-01-16 14:14:00+00:00,63.0,9.44,66.0,12.28,12.09,47.59359,-54.27349
2023-01-16 14:24:00+00:00,67.0,11.42,64.0,13.49,12.09,47.59359,-54.27349
2023-01-16 14:34:00+00:00,61.0,10.0,67.0,12.4,12.09,47.59359,-54.27349
2023-01-16 14:44:00+00:00,57.0,9.44,55.0,11.01,12.09,47.59359,-54.27349
2023-01-16 14:54:00+00:00,55.0,9.58,58.0,13.24,12.09,47.59359,-54.27349
2023-01-16 15:04:00+00:00,57.0,9.67,50.0,11.19,12.09,47.59359,-54.27349
2023-01-16 15:14:01+00:00,60.0,8.86,60.0,10.15,12.09,47.59359,-54.27349
2023-01-16 15:24:01+00:00,60.0,9.56,63.0,12.46,12.09,47.59359,-54.27349
2023-01-16 15:34:01+00:00,63.0,9.42,62.0,10.69,12.09,47.59359,-54.27349
2023-01-16 15:44:01+00:00,65.0,8.61,66.0,9.61,12.09,47.59359,-54.27349
2023-01-16 15:54:01+00:00,63.0,9.07,63.0,10.02,12.09,47.59359,-54.27349
2023-01-16 16:04:01+00:00,58.0,8.89,55.0,10.32,12.09,47.59359,-54.27349
2023-01-16 16:14:00+00:00,57.0,8.28,57.0,9.18,12.17,47.59359,-54.27349
2023-01-16 16:24:00+00:00,54.0,8.68,53.0,9.9,12.17,47.59359,-54.27349
2023-01-16 16:34:00+00:00,57.0,7.89,60.0,8.81,12.17,47.59359,-54.27349
2023-01-16 16:44:00+00:00,52.0,8.45,49.0,9.39,12.17,47.59359,-54.27349
2023-01-16 16:54:00+00:00,54.0,8.57,58.0,9.64,12.17,47.59359,-54.27349
2023-01-16 17:04:00+00:00,57.0,8.38,55.0,9.34,12.17,47.59359,-54.27349
2023-01-16 17:14:00+00:00,52.0,9.08,53.0,10.06,12.17,47.59359,-54.27349
2023-01-16 17:24:00+00:00,53.0,9.24,51.0,10.19,12.17,47.59359,-54.27349
2023-01-16 17:34:00+00:00,55.0,8.63,53.0,9.5,12.17,47.59359,-54.27349
2023-01-16 17:44:00+00:00,58.0,7.57,61.0,8.6,12.17,47.59359,-54.27349
2023-01-16 17:54:00+00:00,54.0,8.12,55.0,9.32,12.17,47.59359,-54.27349
2023-01-16 18:04:00+00:00,55.0,7.72,59.0,9.25,12.17,47.59359,-54.27349
2023-01-16 18:14:01+00:00,55.0,8.51,57.0,9.9,12.09,47.59359,-54.27349
2023-01-16 18:24:01+00:00,59.0,8.93,58.0,10.74,12.09,47.59359,-54.27349
2023-01-16 18:34:01+00:00,54.0,7.86,61.0,9.85,12.09,47.59359,-54.27349
2023-01-16 18:44:01+00:00,54.0,9.54,58.0,11.25,12.09,47.59359,-54.27349
2023-01-16 18:54:01+00:00,56.0,9.46,52.0,11.46,12.09,47.59359,-54.27349
2023-01-16 19:04:01+00:00,55.0,9.08,59.0,10.99,12.09,47.59359,-54.27349
2023-01-16 19:14:00+00:00,56.0,9.52,58.0,10.94,12.01,47.59359,-54.27349
2023-01-16 19:24:00+00:00,53.0,9.29,51.0,10.95,12.01,47.59359,-54.27349
2023-01-16 19:34:00+00:00,43.0,6.59,55.0,8.75,12.01,47.59359,-54.27349
2023-01-16 19:44:00+00:00,46.0,9.14,54.0,11.61,12.01,47.59359,-54.27349
2023-01-16 19:54:00+00:00,50.0,9.96,53.0,11.53,12.01,47.59359,-54.27349
2023-01-16 20:04:00+00:00,48.0,10.67,54.0,11.93,12.01,47.59359,-54.27349
2023-01-16 20:14:00+00:00,50.0,10.42,52.0,11.85,12.01,47.59359,-54.27349
2023-01-16 20:24:00+00:00,51.0,10.51,54.0,11.76,12.01,47.59359,-54.27349
2023-01-16 20:34:00+00:00,48.0,10.83,52.0,12.01,12.01,47.59359,-54.27349
2023-01-16 20:44:00+00:00,48.0,10.96,52.0,12.17,12.01,47.59359,-54.27349
2023-01-16 20:54:00+00:00,49.0,10.83,53.0,12.18,12.01,47.59359,-54.27349
2023-01-16 21:04:00+00:00,47.0,10.82,51.0,12.43,12.01,47.59359,-54.27349
2023-01-16 21:14:00+00:00,49.0,10.18,53.0,11.7,12.01,47.59359,-54.27349
2023-01-16 21:24:00+00:00,51.0,9.45,48.0,10.56,12.01,47.59359,-54.27349
2023-01-16 21:34:00+00:00,53.0,9.13,52.0,10.37,12.01,47.59359,-54.27349
2023-01-16 21:44:00+00:00,43.0,10.65,48.0,11.93,12.01,47.59359,-54.27349
2023-01-16 21:54:00+00:00,51.0,9.99,55.0,11.85,12.01,47.59359,-54.27349
2023-01-16 22:04:00+00:00,50.0,7.28,50.0,8.7,12.01,47.59359,-54.27349
2023-01-16 22:14:01+00:00,42.0,8.55,30.0,10.55,12.01,47.59359,-54.27349
2023-01-16 22:24:01+00:00,44.0,7.1,40.0,7.9,12.01,47.59359,-54.27349
2023-01-16 22:34:01+00:00,66.0,7.08,67.0,8.63,12.01,47.59359,-54.27349
2023-01-16 22:44:01+00:00,70.0,6.98,70.0,8.54,12.01,47.59359,-54.27349
2023-01-16 22:54:01+00:00,64.0,7.65,64.0,9.21,12.01,47.59359,-54.27349
2023-01-16 23:04:01+00:00,70.0,6.69,69.0,8.09,12.01,47.59359,-54.27349
2023-01-16 23:14:00+00:00,65.0,6.96,67.0,8.0,12.01,47.59359,-54.27349
2023-01-16 23:24:00+00:00,62.0,7.8,53.0,9.3,12.01,47.59359,-54.27349
2023-01-16 23:34:00+00:00,51.0,8.62,49.0,9.31,12.01,47.59359,-54.27349
2023-01-16 23:44:00+00:00,57.0,5.93,52.0,7.48,12.01,47.59359,-54.27349
2023-01-16 23:54:00+00:00,52.0,3.94,66.0,7.62,12.01,47.59359,-54.27349
